CST,Max TemperatureF,Mean TemperatureF,Min TemperatureF,Max Dew PointF,MeanDew PointF,Min DewpointF,Max Humidity, Mean Humidity, Min Humidity, Max Sea Level PressureIn, Mean Sea Level PressureIn, Min Sea Level PressureIn, Max VisibilityMiles, Mean VisibilityMiles, Min VisibilityMiles, Max Wind SpeedMPH, Mean Wind SpeedMPH, Max Gust SpeedMPH,PrecipitationIn, CloudCover, Events, WindDirDegrees
2012-12-1,78,68,57,70,64,57,100,90,61,30.25,30.21,30.18,10,10,7,14,5,18,0.00,2,,83
2012-12-2,78,64,51,72,60,52,100,87,57,30.27,30.22,30.19,10,8,0,15,3,17,0.00,1,Fog,85
2012-12-3,78,66,53,72,63,54,100,89,54,30.22,30.18,30.14,10,9,2,16,5,20,0.00,0,,93
2012-12-4,80,71,62,73,66,63,100,90,65,30.23,30.16,30.13,10,10,3,15,6,22,0.21,1,Rain-Thunderstorm,109
2012-12-5,68,64,60,68,64,61,100,100,100,30.12,30.07,30.02,10,10,2,12,5,16,0.61,3,Rain-Thunderstorm,115
2012-12-6,73,62,50,72,65,50,100,95,83,30.02,29.96,29.93,10,10,0,14,5,17,0.00,5,Fog-Rain,78
2012-12-7,73,62,51,72,61,52,100,97,78,29.98,29.93,29.89,10,6,0,6,2,,0.00,5,Fog,67
2012-12-8,77,62,46,68,57,46,100,89,57,30.00,29.96,29.92,10,6,0,12,2,17,0.00,0,Fog,160
2012-12-9,78,64,51,77,65,52,100,98,83,30.02,29.96,29.92,10,10,5,16,6,25,0.00,3,,134
2012-12-10,78,66,53,73,62,46,100,94,74,29.99,29.88,29.81,10,10,4,18,11,28,0.09,3,Rain-Thunderstorm,232
2012-12-11,51,48,46,46,42,39,87,74,62,30.18,30.07,29.98,10,10,10,16,12,22,0.00,0,,345
2012-12-12,59,49,39,41,36,28,87,66,31,30.29,30.22,30.14,10,10,10,16,10,21,0.00,,,335
2012-12-13,60,48,35,46,40,34,100,75,52,30.36,30.29,30.25,10,9,0,10,7,,0.00,,Fog,11
2012-12-14,69,54,39,59,52,39,100,87,56,30.30,30.20,30.09,10,10,5,13,6,18,0.00,0,,43
2012-12-15,77,66,55,64,62,55,100,87,61,30.10,30.03,29.98,10,10,4,14,5,16,0.00,1,,133
2012-12-16,77,64,51,72,62,52,100,89,74,29.97,29.90,29.84,10,8,0,14,5,20,0.00,3,Fog-Rain,137
2012-12-17,68,62,57,66,62,54,100,95,82,29.93,29.85,29.80,10,8,2,13,7,16,0.00,2,Rain,206
2012-12-18,68,54,41,57,48,41,100,90,46,30.05,29.99,29.94,10,7,0,7,3,,0.00,1,Fog,2
2012-12-19,77,72,68,68,67,63,100,91,61,30.02,29.92,29.88,10,9,7,13,11,16,0.00,5,,133
2012-12-20,68,60,50,68,56,28,100,81,31,30.29,29.97,29.86,10,8,5,23,14,31,0.03,,,197
2012-12-21,,,,,,,,,,,,,,,,,,,,,,
2012-12-22,,,,,,,,,,,,,,,,,,,,,,
2012-12-23,68,62,57,61,59,54,88,81,73,30.20,30.05,29.99,10,10,10,13,9,18,0.00,0,,149
2012-12-24,75,65,55,68,62,55,100,93,78,29.98,29.92,29.88,10,6,0,14,7,30,0.43,,Fog-Rain-Thunderstorm,176
2012-12-25,77,66,55,70,61,46,100,86,63,29.87,29.72,29.58,10,8,2,29,11,41,0.19,4,Rain-Thunderstorm,177
2012-12-26,55,48,39,46,40,34,81,75,67,30.01,29.88,29.79,10,10,10,20,16,29,0.00,,,287
2012-12-27,42,,42,37,37,37,81,81,81,30.14,30.14,30.14,10,10,10,6,6,,0.00,,,40
2012-12-28,71,61,51,70,63,50,100,91,78,29.96,29.83,29.75,10,9,3,21,14,29,0.17,,Rain,214
2012-12-29,53,48,44,50,39,32,94,73,50,30.39,30.19,29.97,10,10,10,22,13,29,0.00,,,299
2012-12-30,42,39,37,37,33,32,81,74,70,30.44,30.42,30.41,10,10,10,14,12,21,0.00,,,2
2012-12-31,62,56,51,61,54,43,94,84,71,30.29,30.14,30.07,10,10,10,13,9,20,0.00,,,78